Weather History for Harrisburg, IL

Change the Weather History Date:

Monday, September 2, 2013

  Actual Average (KMWA) Record (KMWA)
Temperature  
Mean Temperature 76 °F -  
Max Temperature 86 °F 84 °F 98 °F (2011)
Min Temperature 67 °F 63 °F 49 °F (1987)
Cooling Degree Days 12    
Growing Degree Days 26 (Base 50)    
Moisture  
Dew Point 67 °F    
Average Humidity 78    
Maximum Humidity 100    
Minimum Humidity 47    
Precipitation  
Precipitation 0.00 in - - ()
Sea Level Pressure  
Sea Level Pressure 29.90 in    
Wind  
Wind Speed 3 mph (NNW)    
Max Wind Speed 12 mph    
Max Gust Speed 17 mph    
Visibility 7 miles    
Events Fog    
Averages and records for this station are not official NWS values.
T = Trace of Precipitation, MM = Missing Value Source: NWS Daily Summary

Daily Weather History Graph

Daily Weather History Graph

Search for Another Location

Airport:

Trip Planner

Search our weather history database for the weather conditions in past years. The results will help you decide how hot, cold, wet, or windy it might be!

Date:

Astronomy

Sep. 02, 2013 Rise Set
Actual Time 6:25 AM CDT 7:21 PM CDT
Civil Twilight 5:58 AM CDT 7:48 PM CDT
Nautical Twilight 5:26 AM CDT 8:20 PM CDT
Astronomical Twilight 4:53 AM CDT 8:52 PM CDT
Moon 3:43 AM CDT (9/2) 5:33 PM CDT (9/2)
Length of Visible Light 13h 49m
Length of Day
12h 56m
Waning Crescent, 8% of the Moon is Illuminated
Sep 2
Waning Crescent
Sep 5
New
Sep 12
First Quarter
Sep 19
Full
Sep 26
Last Quarter

Hourly Weather History & Observations

Time (CDT) Temp. Heat Index Dew Point Humidity Pressure Visibility Wind Dir Wind Speed Gust Speed Precip Events Conditions
12:15 AM 69.8 °F - 69.8 °F 100% 29.86 in 4.0 mi Calm Calm - N/A   Clear
12:35 AM 70.0 °F - 70.0 °F 100% 29.86 in 4.0 mi Calm Calm - N/A   Clear
12:55 AM 69.1 °F - 69.1 °F 100% 29.86 in 3.0 mi Calm Calm - N/A   Clear
1:15 AM 69.8 °F - 69.8 °F 100% 29.86 in 4.0 mi Calm Calm - N/A   Clear
1:35 AM 69.4 °F - 69.4 °F 100% 29.86 in 2.0 mi Calm Calm - N/A   Clear
1:55 AM 68.5 °F - 68.5 °F 100% 29.86 in 3.0 mi Calm Calm - N/A   Clear
2:15 AM 68.5 °F - 68.5 °F 100% 29.85 in 0.5 mi Calm Calm - N/A Fog Fog
2:35 AM 68.5 °F - 68.5 °F 100% 29.85 in 0.2 mi Calm Calm - N/A Fog Fog
2:55 AM 68.5 °F - 68.5 °F 100% 29.85 in 0.5 mi Calm Calm - N/A Fog Fog
3:15 AM 68.9 °F - 68.9 °F 100% 29.85 in 0.2 mi Calm Calm - N/A Fog Fog
3:35 AM 68.0 °F - 68.0 °F 100% 29.85 in 0.2 mi Calm Calm - N/A Fog Fog
3:55 AM 67.3 °F - 67.3 °F 100% 29.85 in 0.2 mi Calm Calm - N/A Fog Fog
4:15 AM 67.3 °F - 67.3 °F 100% 29.85 in 0.2 mi Calm Calm - N/A Fog Fog
4:35 AM 68.0 °F - 68.0 °F 100% 29.85 in 0.2 mi Calm Calm - N/A Fog Fog
4:55 AM 68.7 °F - 68.7 °F 100% 29.86 in 0.8 mi Calm Calm - N/A   Overcast
5:15 AM 69.8 °F - 69.8 °F 100% 29.86 in 0.2 mi Calm Calm - N/A Fog Fog
5:35 AM 70.5 °F - 70.5 °F 100% 29.86 in 0.8 mi Calm Calm - N/A   Overcast
5:55 AM 70.3 °F - 70.3 °F 100% 29.86 in 0.2 mi Calm Calm - N/A Fog Fog
6:15 AM 70.0 °F - 70.0 °F 100% 29.87 in 0.2 mi SSW 3.5 mph - N/A Fog Fog
6:35 AM 71.4 °F - 71.4 °F 100% 29.88 in 0.2 mi Calm Calm - N/A Fog Fog
6:55 AM 70.9 °F - 70.9 °F 100% 29.89 in 0.2 mi Calm Calm - N/A Fog Fog
7:15 AM 71.6 °F - 71.6 °F 100% 29.90 in 0.2 mi SW 3.5 mph - N/A Fog Fog
7:35 AM 71.8 °F - 71.8 °F 100% 29.90 in 0.2 mi Calm Calm - N/A Fog Fog
7:55 AM 72.1 °F - 72.1 °F 100% 29.90 in 0.5 mi Calm Calm - N/A Fog Fog
8:15 AM 72.5 °F - 72.5 °F 100% 29.91 in 3.0 mi Calm Calm - N/A   Overcast
8:35 AM 72.5 °F - 72.5 °F 100% 29.91 in 7.0 mi Calm Calm - N/A   Scattered Clouds
8:55 AM 73.8 °F - 73.8 °F 100% 29.91 in 10.0 mi Calm Calm - N/A   Scattered Clouds
9:15 AM 73.8 °F - 73.8 °F 100% 29.91 in 10.0 mi NNE 3.5 mph - N/A   Scattered Clouds
9:35 AM 75.9 °F - 75.9 °F 100% 29.91 in 10.0 mi NNE 3.5 mph - N/A   Clear
9:55 AM 78.6 °F - 71.4 °F 78% 29.92 in 10.0 mi North 4.6 mph - N/A   Clear
10:15 AM 79.3 °F - 71.6 °F 77% 29.93 in 10.0 mi NNE 3.5 mph - N/A   Clear
10:35 AM 80.2 °F 83.7 °F 71.1 °F 73% 29.93 in 10.0 mi NW 6.9 mph - N/A   Scattered Clouds
10:55 AM 79.9 °F - 70.5 °F 73% 29.93 in 10.0 mi NNW 5.8 mph - N/A   Mostly Cloudy
11:15 AM 81.1 °F 85.2 °F 71.4 °F 72% 29.93 in 10.0 mi NNW 3.5 mph - N/A   Scattered Clouds
11:35 AM 82.4 °F 87.0 °F 71.4 °F 69% 29.93 in 10.0 mi NNW 4.6 mph - N/A   Scattered Clouds
11:55 AM 82.9 °F 87.2 °F 70.3 °F 66% 29.93 in 10.0 mi NW 4.6 mph - N/A   Mostly Cloudy
12:15 PM 82.6 °F 85.7 °F 68.4 °F 62% 29.93 in 10.0 mi NNW 4.6 mph - N/A   Mostly Cloudy
12:35 PM 83.5 °F 85.7 °F 66.2 °F 56% 29.93 in 10.0 mi NNW 4.6 mph - N/A   Mostly Cloudy
12:55 PM 83.7 °F 86.2 °F 67.1 °F 57% 29.92 in 10.0 mi WNW 5.8 mph - N/A   Scattered Clouds
1:15 PM 83.7 °F 86.0 °F 66.6 °F 56% 29.92 in 10.0 mi North 4.6 mph - N/A   Scattered Clouds
1:35 PM 86.0 °F 88.5 °F 66.7 °F 52% 29.91 in 10.0 mi NNW 6.9 mph - N/A   Clear
1:55 PM 86.2 °F 88.4 °F 66.0 °F 51% 29.91 in 10.0 mi WNW 10.4 mph - N/A   Clear
2:15 PM 85.8 °F 87.6 °F 65.1 °F 50% 29.91 in 10.0 mi NW 11.5 mph 17.3 mph N/A   Clear
2:35 PM 85.3 °F 86.6 °F 64.2 °F 49% 29.90 in 10.0 mi NW 11.5 mph - N/A   Clear
2:55 PM 85.5 °F 86.3 °F 63.3 °F 47% 29.90 in 10.0 mi NW 9.2 mph - N/A   Clear
3:15 PM 85.3 °F 86.6 °F 64.0 °F 49% 29.90 in 10.0 mi WNW 11.5 mph - N/A   Clear
3:35 PM 84.7 °F 85.6 °F 63.3 °F 48% 29.90 in 10.0 mi NW 11.5 mph - N/A   Clear
3:55 PM 85.1 °F 86.4 °F 64.0 °F 49% 29.89 in 10.0 mi NW 9.2 mph - N/A   Clear
4:15 PM 84.7 °F 86.1 °F 64.0 °F 50% 29.89 in 10.0 mi NNW 10.4 mph - N/A   Clear
4:35 PM 84.6 °F 85.9 °F 64.0 °F 50% 29.89 in 10.0 mi NW 9.2 mph 16.1 mph N/A   Clear
4:55 PM 84.2 °F 85.0 °F 62.8 °F 48% 29.88 in 10.0 mi NNW 9.2 mph - N/A   Clear
5:15 PM 83.8 °F 84.7 °F 62.8 °F 49% 29.88 in 10.0 mi NW 8.1 mph - N/A   Clear
5:35 PM 83.5 °F 84.5 °F 63.3 °F 50% 29.88 in 10.0 mi NW 10.4 mph - N/A   Clear
5:55 PM 82.8 °F 84.0 °F 63.3 °F 52% 29.89 in 10.0 mi NNW 5.8 mph 9.2 mph N/A   Clear
6:15 PM 82.2 °F 83.3 °F 63.1 °F 52% 29.89 in 10.0 mi NNW 8.1 mph - N/A   Clear
6:35 PM 80.8 °F 82.2 °F 63.7 °F 56% 29.90 in 10.0 mi NW 4.6 mph - N/A   Clear
6:55 PM 79.0 °F - 64.6 °F 61% 29.90 in 10.0 mi NNW 3.5 mph - N/A   Clear
7:15 PM 77.7 °F - 64.6 °F 64% 29.91 in 10.0 mi NNW 4.6 mph - N/A   Clear
7:35 PM 76.1 °F - 64.4 °F 67% 29.91 in 10.0 mi NW 4.6 mph - N/A   Clear
7:55 PM 74.7 °F - 64.4 °F 70% 29.91 in 10.0 mi NNW 3.5 mph - N/A   Clear
8:15 PM 74.5 °F - 64.4 °F 71% 29.91 in 10.0 mi NNW 4.6 mph - N/A   Clear
8:35 PM 73.4 °F - 63.9 °F 72% 29.92 in 10.0 mi NNW 4.6 mph - N/A   Clear
8:55 PM 72.5 °F - 63.7 °F 74% 29.92 in 10.0 mi NNW 5.8 mph - N/A   Clear
9:15 PM 72.0 °F - 63.1 °F 74% 29.93 in 10.0 mi NNW 4.6 mph - N/A   Clear
9:35 PM 71.6 °F - 63.1 °F 75% 29.94 in 10.0 mi NNW 3.5 mph - N/A   Clear
9:55 PM 71.6 °F - 62.6 °F 73% 29.94 in 10.0 mi NNW 3.5 mph - N/A   Clear
10:15 PM 71.2 °F - 62.6 °F 74% 29.94 in 10.0 mi North 4.6 mph - N/A   Clear
10:35 PM 70.9 °F - 62.6 °F 75% 29.94 in 10.0 mi North 4.6 mph - N/A   Clear
10:55 PM 70.7 °F - 62.6 °F 75% 29.94 in 10.0 mi North 5.8 mph - N/A   Clear
11:15 PM 69.8 °F - 62.6 °F 78% 29.94 in 10.0 mi North 4.6 mph - N/A   Clear
11:35 PM 68.9 °F - 62.6 °F 80% 29.94 in 10.0 mi North 4.6 mph - N/A   Clear
11:55 PM 69.1 °F - 62.6 °F 80% 29.95 in 10.0 mi NNW 3.5 mph - N/A   Clear